Tracking 29790 objects as of 11-Oct-2024
HD Live streaming from Space Station
objects crossing your sky now

AETHER-1

Track AETHER-1 now!
10-day predictions


NORAD ID: 58281
Int'l Code: 2023-174AB
Perigee: 494.6 km
Apogee: 507.5 km
Inclination: 97.4 °
Period: 94.5 minutes
Semi major axis: 6872 km
RCS: Unknown
Launch date: November 11, 2023
Source: (CAN)
Launch site: AIR FORCE WESTERN TEST RANGE (AFWTR)
Your satellite tracking list
Your tracking list is empty




NASA's NSSDC Master Catalog

Two Line Element Set (TLE):
1 58281U 23174AB  24285.54464106  .00026604  00000-0  10981-2 0  9991
2 58281  97.4485 359.4101 0009376 173.6312 186.5046 15.23969622 51421
Source of the keplerian elements: AFSPC